Peru, IL

4:15 PM CDT on August 22, 2017 (GMT -0500)
Illinois Valley Regional-Duncan

Weather History for KVYS - February, 2013

Change the Weather History Date:

Friday, February 22, 2013

  Actual Average Record
Temperature  
Mean Temperature 30 °F -  
Max Temperature 34 °F 40 °F 66 °F (2017)
Min Temperature 26 °F 22 °F -5 °F (1978)
Degree Days  
Heating Degree Days 35    
Moisture  
Dew Point 26 °F    
Average Humidity 86    
Maximum Humidity 97    
Minimum Humidity 74    
Precipitation  
Precipitation 0.03 in - - ()
Sea Level Pressure  
Sea Level Pressure 29.86 in    
Wind  
Wind Speed 12 mph (SSW)    
Max Wind Speed 25 mph    
Max Gust Speed 34 mph    
Visibility 7 miles    
Events Rain , Snow    
Averages and records for this station are not official NWS values.
T = Trace of Precipitation, MM = Missing Value Source: NWS Daily Summary

Daily Weather History Graph

Daily Weather History Graph

Search for Another Location

Airport or City:

Trip Planner

Search our weather history database for the weather conditions in past years. The results will help you decide how hot, cold, wet, or windy it might be!

Date:

Astronomy

Feb. 22, 2013 Rise Set
Actual Time 6:41 AM CST 5:39 PM CST
Civil Twilight 6:13 AM CST 6:07 PM CST
Nautical Twilight 5:41 AM CST 6:39 PM CST
Astronomical Twilight 5:09 AM CST 7:11 PM CST
Moon 2:49 PM CST 4:27 AM CST
Length of Visible Light 11h 54m
Length of Day
10h 58m
Waxing Gibbous, 90% of the Moon is Illuminated
Feb 22
Waxing Gibbous
Feb 25
Full
Mar 4
Last Quarter
Mar 11
New
Mar 19
First Quarter

Hourly Weather History & Observations

Time (CST) Temp. Windchill Dew Point Humidity Pressure Visibility Wind Dir Wind Speed Gust Speed Precip Events Conditions
12:15 AM 26.4 °F 15.5 °F 24.4 °F 92% 29.90 in 1.5 mi East 12.7 mph - 0.01 in Snow Light Snow
12:35 AM 26.4 °F 15.5 °F 24.4 °F 92% 29.90 in 1.2 mi East 12.7 mph 17.3 mph 0.01 in Snow Light Snow
12:55 AM 26.4 °F 16.6 °F 24.4 °F 92% 29.89 in 1.2 mi East 10.4 mph - 0.01 in Snow Light Snow
1:15 AM 26.4 °F 16.6 °F 24.4 °F 92% 29.89 in 1.5 mi East 10.4 mph - N/A Snow Light Snow
1:35 AM 26.4 °F 16.6 °F 24.6 °F 93% 29.88 in 0.8 mi East 10.4 mph - N/A Snow Snow
1:55 AM 26.2 °F 15.2 °F 24.6 °F 94% 29.87 in 1.8 mi East 12.7 mph - N/A Snow Light Snow
2:15 AM 26.4 °F 16.6 °F 24.6 °F 93% 29.86 in 1.2 mi East 10.4 mph 16.1 mph N/A Snow Light Snow
2:35 AM 26.6 °F 16.2 °F 24.8 °F 93% 29.85 in 2.0 mi East 11.5 mph - N/A Snow Light Snow
2:55 AM 26.6 °F 16.8 °F 24.8 °F 93% 29.85 in 1.2 mi East 10.4 mph - 0.01 in Snow Light Snow
3:15 AM 26.6 °F 17.5 °F 24.8 °F 93% 29.84 in 2.5 mi East 9.2 mph - N/A Snow Light Snow
3:35 AM 26.4 °F 16.6 °F 24.8 °F 94% 29.83 in 4.0 mi East 10.4 mph - N/A Snow Light Snow
3:55 AM 26.4 °F 16.6 °F 24.8 °F 94% 29.83 in 7.0 mi East 10.4 mph - N/A   Overcast
4:15 AM 26.2 °F 16.4 °F 24.4 °F 93% 29.82 in 7.0 mi East 10.4 mph - N/A   Overcast
4:35 AM 26.2 °F 16.4 °F 24.4 °F 93% 29.82 in 7.0 mi East 10.4 mph - N/A   Overcast
4:55 AM 26.2 °F 16.4 °F 24.4 °F 93% 29.82 in 7.0 mi East 10.4 mph - N/A   Overcast
5:15 AM 26.4 °F 18.0 °F 24.6 °F 93% 29.81 in 5.0 mi East 8.1 mph - N/A   Overcast
5:35 AM 26.4 °F 18.0 °F 24.6 °F 93% 29.81 in 7.0 mi East 8.1 mph - N/A   Overcast
5:55 AM 26.6 °F 19.1 °F 24.8 °F 93% 29.81 in 7.0 mi East 6.9 mph - N/A   Overcast
6:15 AM 27.5 °F 18.6 °F 25.5 °F 92% 29.80 in 7.0 mi East 9.2 mph - N/A   Overcast
6:35 AM 27.3 °F 17.7 °F 25.5 °F 93% 29.79 in 5.0 mi East 10.4 mph - N/A   Overcast
6:55 AM 27.5 °F 17.4 °F 25.7 °F 93% 29.79 in 5.0 mi ESE 11.5 mph 17.3 mph N/A   Overcast
7:15 AM 28.4 °F 19.1 °F 26.6 °F 93% 29.79 in 7.0 mi ESE 10.4 mph - N/A   Overcast
7:35 AM 28.4 °F 18.5 °F 26.6 °F 93% 29.80 in 7.0 mi ESE 11.5 mph - N/A   Overcast
7:55 AM 28.6 °F 18.7 °F 26.6 °F 92% 29.80 in 5.0 mi ESE 11.5 mph - N/A   Overcast
8:15 AM 28.8 °F 20.2 °F 26.6 °F 92% 29.80 in 4.0 mi ESE 9.2 mph - N/A   Overcast
8:35 AM 29.3 °F 20.8 °F 27.5 °F 93% 29.80 in 3.0 mi ESE 9.2 mph - N/A   Overcast
8:55 AM 30.0 °F 22.4 °F 28.2 °F 93% 29.80 in 2.5 mi SE 8.1 mph - N/A   Overcast
9:15 AM 30.2 °F 24.3 °F 28.4 °F 93% 29.81 in 2.0 mi East 5.8 mph - N/A   Overcast
9:35 AM 31.1 °F 25.4 °F 29.8 °F 95% 29.81 in 1.5 mi East 5.8 mph - N/A   Light Freezing Rain
9:55 AM 31.6 °F 26.0 °F 30.2 °F 94% 29.81 in 1.2 mi WSW 5.8 mph - N/A Rain Light Freezing Rain
10:15 AM 32.0 °F 26.4 °F 31.1 °F 96% 29.81 in 1.2 mi WSW 5.8 mph - N/A Rain Light Rain
10:35 AM 32.7 °F 23.9 °F 32.0 °F 97% 29.82 in 1.8 mi SW 11.5 mph - N/A Snow Light Snow
10:55 AM 33.1 °F 24.4 °F 32.0 °F 96% 29.82 in 1.0 mi SW 11.5 mph - 0.01 in Snow Light Snow
11:15 AM 33.1 °F 24.9 °F 32.0 °F 96% 29.82 in 3.0 mi SW 10.4 mph - N/A Rain Light Rain
11:35 AM 34.3 °F 24.6 °F 32.4 °F 92% 29.82 in 7.0 mi SW 15.0 mph - N/A Snow Light Snow
11:55 AM 34.3 °F 23.9 °F 31.6 °F 90% 29.82 in 10.0 mi SW 17.3 mph 21.9 mph N/A   Overcast
12:15 PM 34.3 °F 23.9 °F 31.6 °F 90% 29.82 in 10.0 mi SW 17.3 mph - N/A   Overcast
12:35 PM 34.3 °F 23.2 °F 30.4 °F 85% 29.81 in 10.0 mi SW 19.6 mph 24.2 mph N/A   Overcast
12:55 PM 34.3 °F 23.5 °F 29.1 °F 81% 29.81 in 10.0 mi SW 18.4 mph 23.0 mph N/A   Overcast
1:15 PM 34.3 °F 22.9 °F 28.4 °F 79% 29.82 in 10.0 mi WSW 20.7 mph 26.5 mph N/A   Overcast
1:35 PM 33.6 °F 20.8 °F 27.0 °F 77% 29.83 in 10.0 mi SW 25.3 mph - N/A   Overcast
1:55 PM 32.7 °F 21.4 °F 26.4 °F 78% 29.83 in 10.0 mi SW 18.4 mph 27.6 mph N/A   Overcast
2:15 PM 32.0 °F 20.1 °F 25.7 °F 78% 29.84 in 10.0 mi WSW 19.6 mph 34.5 mph N/A   Overcast
2:35 PM 31.8 °F 18.7 °F 25.3 °F 77% 29.85 in 10.0 mi WSW 24.2 mph 31.1 mph N/A   Overcast
2:55 PM 31.6 °F 21.2 °F 25.0 °F 76% 29.86 in 10.0 mi WSW 15.0 mph 24.2 mph N/A   Overcast
3:15 PM 32.0 °F 20.5 °F 25.5 °F 77% 29.85 in 10.0 mi WSW 18.4 mph 27.6 mph N/A   Overcast
3:35 PM 32.0 °F 20.5 °F 25.5 °F 77% 29.86 in 10.0 mi WSW 18.4 mph - N/A   Overcast
3:55 PM 31.6 °F 20.4 °F 25.3 °F 78% 29.87 in 10.0 mi WSW 17.3 mph 23.0 mph N/A   Overcast
4:15 PM 31.6 °F 22.1 °F 25.5 °F 78% 29.87 in 10.0 mi WSW 12.7 mph - N/A   Overcast
4:35 PM 31.1 °F 20.9 °F 25.0 °F 78% 29.88 in 10.0 mi WSW 13.8 mph - N/A   Overcast
4:55 PM 31.1 °F 19.7 °F 25.0 °F 78% 29.88 in 10.0 mi WSW 17.3 mph 23.0 mph N/A   Overcast
5:15 PM 30.9 °F 20.2 °F 23.5 °F 74% 29.89 in 10.0 mi WSW 15.0 mph 21.9 mph N/A   Overcast
5:35 PM 30.9 °F 21.2 °F 23.9 °F 75% 29.89 in 10.0 mi WSW 12.7 mph - N/A   Overcast
5:55 PM 30.6 °F 19.8 °F 24.3 °F 77% 29.90 in 10.0 mi WSW 15.0 mph - N/A   Overcast
6:15 PM 30.2 °F 18.9 °F 24.4 °F 79% 29.91 in 10.0 mi WSW 16.1 mph 20.7 mph N/A   Overcast
6:35 PM 30.2 °F 19.8 °F 24.8 °F 80% 29.91 in 10.0 mi WSW 13.8 mph - N/A   Overcast
6:55 PM 30.0 °F 18.3 °F 24.4 °F 80% 29.91 in 10.0 mi SW 17.3 mph - N/A   Overcast
7:15 PM 30.0 °F 19.1 °F 23.9 °F 78% 29.92 in 10.0 mi WSW 15.0 mph 20.7 mph N/A   Overcast
7:35 PM 30.0 °F 20.5 °F 23.9 °F 78% 29.92 in 10.0 mi WSW 11.5 mph - N/A   Overcast
7:55 PM 29.8 °F 20.3 °F 23.4 °F 77% 29.93 in 10.0 mi WSW 11.5 mph - N/A   Overcast
8:15 PM 29.7 °F 20.7 °F 23.4 °F 77% 29.93 in 10.0 mi WSW 10.4 mph - N/A   Overcast
8:35 PM 30.2 °F 20.8 °F 24.8 °F 80% 29.93 in 10.0 mi WSW 11.5 mph - N/A Snow Light Snow
8:55 PM 29.1 °F 19.4 °F 24.3 °F 82% 29.93 in 10.0 mi WSW 11.5 mph - N/A   Overcast
9:15 PM 29.1 °F 18.9 °F 24.3 °F 82% 29.94 in 10.0 mi WSW 12.7 mph - N/A   Overcast
9:35 PM 28.9 °F 19.8 °F 23.9 °F 81% 29.94 in 10.0 mi WSW 10.4 mph 18.4 mph N/A   Overcast
9:55 PM 28.9 °F 18.6 °F 23.9 °F 81% 29.94 in 10.0 mi WSW 12.7 mph - N/A   Overcast
10:15 PM 28.9 °F 19.2 °F 23.7 °F 81% 29.93 in 10.0 mi WSW 11.5 mph - N/A   Overcast
10:35 PM 28.8 °F 18.4 °F 23.5 °F 81% 29.94 in 10.0 mi WSW 12.7 mph - N/A   Overcast
10:55 PM 28.4 °F 19.1 °F 23.0 °F 80% 29.94 in 10.0 mi WSW 10.4 mph - N/A   Overcast
11:15 PM 28.0 °F 15.7 °F 22.6 °F 80% 29.93 in 10.0 mi WSW 17.3 mph 20.7 mph N/A   Overcast
11:35 PM 27.5 °F 15.4 °F 22.1 °F 80% 29.94 in 10.0 mi West 16.1 mph 20.7 mph N/A   Overcast
11:55 PM 27.0 °F 16.1 °F 21.7 °F 81% 29.94 in 10.0 mi West 12.7 mph 21.9 mph N/A   Overcast